VA2CPJ Weather Reports


time (UTC)temp
C
wind
direction
speed
KPH
gust
KPH
rain 1hr
cm
rain 24hr
cm
rain mn
cm
humidity
%
barometer
mb
20260507095519 5 237 4.8 9.7 0.00 0.00 0.00 94 1014.0
20260507095022 5 233 8.0 14.5 0.00 0.00 0.00 94 1013.3
20260507094608 5 267 9.7 16.1 0.00 0.00 0.00 94 1014.0
20260507094533 5 259 9.7 16.1 0.00 0.00 0.00 94 1014.3
20260507094036 5 277 8.0 14.5 0.00 0.00 0.00 94 1013.3
20260507093529 5 257 8.0 16.1 0.00 0.00 0.00 94 1014.0
20260507093521 5 249 8.0 16.1 0.00 0.00 0.00 94 1014.3
20260507093043 5 296 6.4 14.5 0.00 0.00 0.00 93 1013.3
20260507092607 5 277 6.4 9.7 0.00 0.00 0.00 93 1014.3
20260507092543 5 278 6.4 11.3 0.00 0.00 0.00 93 1014.3
20260507092020 5 242 4.8 9.7 0.00 0.00 0.00 93 1013.3
20260507091539 5 304 6.4 9.7 0.00 0.00 0.00 93 1014.3
20260507091531 5 286 4.8 8.0 0.00 0.00 0.00 93 1014.3
20260507091033 5 289 6.4 9.7 0.00 0.00 0.00 93 1013.7
20260507090622 5 307 6.4 9.7 0.00 0.00 0.00 93 1014.7
20260507090526 5 307 6.4 9.7 0.00 0.00 0.00 93 1014.3
20260507090021 5 318 6.4 9.7 0.00 0.00 0.00 93 1013.7
20260507085612 5 325 6.4 8.0 0.00 0.00 0.00 93 1014.3
20260507085523 5 322 6.4 9.7 0.00 0.00 0.00 93 1014.7
20260507085026 5 332 4.8 6.4 0.00 0.00 0.00 93 1013.7
20260507084620 5 317 6.4 11.3 0.00 0.00 0.00 94 1014.3
20260507084519 5 314 6.4 9.7 0.00 0.00 0.00 94 1014.7
20260507084027 5 314 8.0 12.9 0.00 0.00 0.00 95 1013.7
20260507083608 5 317 6.4 12.9 0.00 0.00 0.00 95 1014.7
20260507083600 5 325 6.4 12.9 0.00 0.00 0.00 95 1014.7
20260507083027 5 322 6.4 8.0 0.00 0.00 0.00 96 1014.0
20260507082541 5 340 6.4 9.7 0.00 0.00 0.00 97 1014.7
20260507082529 5 339 4.8 9.7 0.00 0.00 0.00 97 1014.7
20260507082037 5 324 4.8 9.7 0.00 0.00 0.00 97 1014.0
20260507081534 5 320 6.4 8.0 0.00 0.00 0.00 97 1014.7
20260507081526 5 324 4.8 6.4 0.00 0.00 0.00 97 1014.7
20260507081019 5 322 3.2 8.0 0.00 0.00 0.00 97 1013.7
20260507080626 5 319 4.8 6.4 0.00 0.00 0.00 97 1014.3
20260507080548 5 322 4.8 8.0 0.00 0.00 0.00 97 1014.7
20260507080033 5 336 4.8 11.3 0.00 0.00 0.00 97 1013.7
20260507075555 5 313 4.8 6.4 0.00 0.00 0.00 97 1014.3
20260507075527 5 325 4.8 6.4 0.00 0.00 0.00 97 1014.7
20260507075020 5 332 3.2 4.8 0.00 0.00 0.00 97 1013.7
20260507074523 5 313 3.2 6.4 0.00 0.00 0.00 97 1014.3
20260507074057 5 326 1.6 4.8 0.00 0.00 0.00 97 1013.7
20260507073548 5 328 3.2 6.4 0.00 0.00 0.00 97 1014.7
20260507073519 5 332 1.6 4.8 0.00 0.00 0.00 97 1014.7
20260507073022 5 336 4.8 6.4 0.00 0.00 0.00 97 1014.0
20260507072600 5 323 4.8 6.4 0.00 0.00 0.00 97 1014.7
20260507072028 5 321 4.8 8.0 0.00 0.00 0.00 97 1014.0
20260507071555 5 328 3.2 6.4 0.00 0.00 0.00 97 1014.7
20260507071521 5 331 3.2 4.8 0.00 0.00 0.00 97 1014.7
20260507071023 5 310 3.2 6.4 0.00 0.00 0.00 97 1014.0
20260507070534 5 296 6.4 9.7 0.00 0.00 0.00 97 1014.7
20260507070525 5 305 6.4 9.7 0.00 0.00 0.00 97 1015.0
20260507070033 5 325 4.8 6.4 0.00 0.00 0.00 96 1014.0
20260507065559 5 308 4.8 9.7 0.00 0.00 0.00 96 1015.0
20260507065548 5 299 4.8 9.7 0.00 0.00 0.00 96 1014.7
20260507065024 5 315 4.8 8.0 0.00 0.00 0.00 96 1014.0
20260507064535 5 300 4.8 8.0 0.00 0.00 0.00 96 1015.0
20260507064527 5 285 4.8 8.0 0.00 0.00 0.00 96 1015.0
20260507064030 5 324 4.8 9.7 0.00 0.00 0.00 96 1014.0
20260507063540 5 302 4.8 8.0 0.00 0.00 0.00 96 1015.0
20260507063031 5 297 6.4 9.7 0.00 0.00 0.00 96 1014.0
20260507062609 5 307 4.8 9.7 0.00 0.00 0.00 96 1015.0
20260507062519 5 310 6.4 9.7 0.00 0.00 0.00 96 1015.0
20260507062042 5 275 4.8 9.7 0.00 0.00 0.00 96 1014.3
20260507061542 5 290 4.8 9.7 0.00 0.00 0.00 95 1015.0
20260507061524 5 295 4.8 9.7 0.00 0.00 0.00 95 1015.4
20260507061044 5 287 6.4 11.3 0.00 0.00 0.00 95 1014.3
20260507060541 6 283 3.2 8.0 0.00 0.00 0.00 95 1015.0
20260507060024 5 317 6.4 11.3 0.00 0.00 0.00 94 1014.3
20260507055525 5 308 6.4 11.3 0.00 0.00 0.00 94 1015.4
20260507055019 6 293 6.4 11.3 0.00 0.00 0.00 94 1014.7
20260507054650 6 296 8.0 12.9 0.00 0.00 0.00 94 1015.4
20260507054530 6 297 6.4 12.9 0.00 0.00 0.00 94 1015.7
20260507054053 6 294 8.0 14.5 0.00 0.00 0.00 94 1014.7
20260507053604 5 303 6.4 12.9 0.00 0.00 0.00 94 1015.4
20260507053527 5 310 8.0 12.9 0.00 0.00 0.00 94 1015.7
20260507053021 6 313 6.4 14.5 0.00 0.00 0.00 93 1014.7
20260507052615 6 317 8.0 14.5 0.00 0.00 0.00 93 1015.7
20260507052532 6 316 8.0 14.5 0.00 0.00 0.00 93 1015.4
20260507052046 5 319 6.4 11.3 0.00 0.00 0.00 93 1014.7
20260507051536 5 313 6.4 9.7 0.00 0.00 0.00 93 1015.7
20260507051528 5 318 6.4 9.7 0.00 0.00 0.00 93 1015.7
20260507051022 6 320 8.0 9.7 0.00 0.00 0.00 93 1015.0
20260507050544 6 310 6.4 11.3 0.00 0.00 0.00 93 1015.7
20260507050036 6 316 6.4 9.7 0.00 0.00 0.00 93 1015.0
20260507045541 6 324 6.4 11.3 0.00 0.00 0.00 93 1015.7
20260507045520 6 322 6.4 8.0 0.00 0.00 0.00 93 1015.7
20260507045049 6 330 4.8 9.7 0.00 0.00 0.00 93 1015.0
20260507044525 6 307 6.4 9.7 0.00 0.00 0.00 93 1015.7
20260507044039 6 321 6.4 11.3 0.00 0.00 0.00 93 1015.0
20260507043522 6 320 8.0 11.3 0.00 0.00 0.00 93 1015.7
20260507043029 6 321 6.4 16.1 0.00 0.00 0.00 93 1014.7
20260507042527 6 324 8.0 11.3 0.00 0.00 0.00 93 1015.7
20260507042020 6 329 6.4 11.3 0.00 0.00 0.00 92 1015.0
20260507041532 6 329 6.4 9.7 0.00 0.00 0.00 92 1015.7
20260507041523 6 330 6.4 9.7 0.00 0.00 0.00 92 1015.7
20260507041100 6 328 8.0 9.7 0.00 0.00 0.00 92 1014.7
20260507040612 6 310 6.4 11.3 0.00 0.00 0.00 92 1015.7
20260507040528 6 316 8.0 11.3 0.00 0.00 0.00 92 1016.0
20260507040022 6 309 12.9 20.9 0.00 0.00 0.00 91 1015.0
20260507035550 6 313 11.3 16.1 0.00 0.00 0.00 91 1016.0
20260507035037 6 315 14.5 24.1 0.00 0.00 0.00 91 1015.4
20260507034545 6 311 12.9 20.9 0.00 0.00 0.00 91 1016.0
20260507034520 6 310 11.3 17.7 0.00 0.00 0.00 91 1016.0
20260507034108 6 311 11.3 14.5 0.00 0.00 0.00 92 1015.4
20260507033545 6 305 12.9 16.1 0.00 0.00 0.00 92 1016.4
20260507033020 6 311 12.9 20.9 0.00 0.00 0.00 92 1015.4
20260507032539 6 316 12.9 20.9 0.00 0.00 0.00 92 1016.0
20260507032026 6 313 12.9 20.9 0.00 0.00 0.00 92 1015.4
20260507031605 6 312 11.3 17.7 0.00 0.00 0.00 93 1016.4
20260507031527 6 315 12.9 19.3 0.00 0.00 0.00 93 1016.0
20260507031025 6 319 14.5 22.5 0.00 0.00 0.00 93 1015.4
20260507030644 6 316 12.9 19.3 0.00 0.00 0.00 93 1016.4
20260507030552 6 310 11.3 19.3 0.00 0.00 0.00 93 1016.4
20260507030043 6 310 12.9 20.9 0.00 0.00 0.00 93 1015.4
20260507025548 6 315 9.7 12.9 0.00 0.00 0.00 93 1016.4
20260507025519 6 318 9.7 12.9 0.00 0.00 0.00 93 1016.4
20260507025039 6 317 9.7 16.1 0.00 0.00 0.00 93 1015.4
20260507024550 6 316 9.7 14.5 0.00 0.00 0.00 93 1016.4
20260507024533 6 313 9.7 14.5 0.00 0.00 0.00 93 1016.4
20260507024053 6 312 9.7 16.1 0.00 0.00 0.00 93 1015.7
20260507023558 6 312 9.7 16.1 0.00 0.00 0.00 93 1016.7
20260507023245 6 322 6.4 12.9 0.00 0.00 0.00 94 1015.7
20260507022534 6 299 6.4 9.7 0.00 0.00 0.00 94 1016.7
20260507022525 6 295 6.4 9.7 0.00 0.00 0.00 94 1016.4
20260507022037 6 308 6.4 12.9 0.00 0.00 0.00 94 1015.7
20260507021548 6 329 3.2 8.0 0.00 0.00 0.00 94 1016.7
20260507021522 6 316 4.8 8.0 0.00 0.00 0.00 94 1016.4
20260507021102 6 323 4.8 9.7 0.00 0.00 0.00 94 1015.7
20260507020535 6 328 6.4 9.7 0.00 0.00 0.00 94 1016.7
20260507020527 6 324 6.4 8.0 0.00 0.00 0.00 94 1016.4
20260507020045 6 322 4.8 9.7 0.00 0.00 0.00 94 1015.7
20260507015523 6 319 6.4 12.9 0.00 0.00 0.00 94 1016.4
20260507015025 6 317 8.0 12.9 0.00 0.00 0.00 94 1015.4
20260507014519 6 329 6.4 8.0 0.00 0.00 0.00 95 1016.4
20260507014027 6 321 4.8 8.0 0.00 0.00 0.00 95 1015.7
20260507013544 6 296 4.8 11.3 0.00 0.00 0.00 95 1016.4
20260507013533 6 304 4.8 9.7 0.00 0.00 0.00 95 1016.4
20260507013026 6 313 8.0 11.3 0.00 0.00 0.00 95 1015.7
20260507012538 6 319 8.0 11.3 0.00 0.00 0.00 95 1016.4
20260507012023 6 320 4.8 8.0 0.00 0.00 0.00 95 1015.4
20260507011551 6 324 4.8 6.4 0.00 0.00 0.00 95 1016.4
20260507011545 6 325 4.8 8.0 0.00 0.00 0.00 95 1016.7
20260507011019 6 340 3.2 6.4 0.00 0.00 0.00 95 1015.7
20260507010605 6 311 3.2 6.4 0.00 0.00 0.00 95 1016.7
20260507010556 6 316 1.6 4.8 0.00 0.00 0.00 95 1016.4
20260507010024 6 326 1.6 4.8 0.00 0.00 0.00 95 1015.7
20260507005555 6 316 4.8 6.4 0.00 0.00 0.00 95 1016.4
20260507005527 6 307 3.2 6.4 0.00 0.00 0.00 95 1016.7
20260507005046 6 334 1.6 4.8 0.00 0.00 0.00 94 1015.7
20260507004540 6 308 4.8 8.0 0.00 0.00 0.00 94 1016.7
20260507004531 6 309 4.8 6.4 0.00 0.00 0.00 94 1016.4
20260507004148 6 288 4.8 8.0 0.00 0.00 0.00 94 1015.7
20260507003527 6 282 3.2 9.7 0.00 0.00 0.00 94 1016.4
20260507003519 6 278 4.8 9.7 0.00 0.00 0.00 94 1016.7
20260507003042 6 263 1.6 4.8 0.00 0.00 0.00 94 1015.7
20260507002541 6 291 3.2 4.8 0.00 0.00 0.00 94 1016.4
20260507002525 6 285 1.6 4.8 0.00 0.00 0.00 94 1016.7
20260507002053 6 315 1.6 3.2 0.00 0.00 0.00 93 1015.7
20260507001529 6 325 1.6 6.4 0.00 0.00 0.00 93 1016.4
20260507001520 6 316 3.2 6.4 0.00 0.00 0.00 93 1016.7
20260507001040 6 303 1.6 8.0 0.00 0.00 0.00 93 1015.7
20260507000552 6 281 4.8 6.4 0.00 0.00 0.00 93 1016.7
20260507000525 6 299 4.8 6.4 0.00 0.00 0.00 93 1016.4
20260507000050 6 309 4.8 9.7 0.00 0.00 0.00 92 1015.7
20260506235539 6 309 4.8 9.7 0.00 0.00 0.00 92 1016.7
20260506235024 6 321 4.8 8.0 0.00 0.00 0.00 91 1015.7
20260506234547 6 287 3.2 8.0 0.00 0.00 0.00 91 1016.4
20260506234535 6 283 4.8 6.4 0.00 0.00 0.00 91 1016.7
20260506234057 6 272 3.2 6.4 0.00 0.00 0.00 91 1015.7
20260506233551 6 257 3.2 9.7 0.00 0.00 0.00 91 1016.4
20260506233522 6 282 1.6 4.8 0.00 0.00 0.00 91 1016.7
20260506233026 6 277 4.8 9.7 0.00 0.00 0.00 91 1015.7
20260506232557 6 253 3.2 8.0 0.00 0.00 0.00 92 1016.7
20260506232528 6 237 3.2 6.4 0.00 0.00 0.00 92 1016.4
20260506232021 6 277 3.2 6.4 0.00 0.00 0.00 92 1015.7
20260506231602 6 235 4.8 8.0 0.00 0.00 0.00 92 1016.4
20260506231532 6 231 4.8 8.0 0.00 0.00 0.00 92 1016.4
20260506231026 6 247 4.8 8.0 0.00 0.00 0.00 92 1015.7
20260506230555 6 305 4.8 8.0 0.00 0.00 0.00 92 1016.4
20260506230520 6 297 3.2 8.0 0.00 0.00 0.00 92 1016.7
20260506230023 6 240 4.8 9.7 0.00 0.00 0.00 92 1015.7
20260506225525 6 272 9.7 11.3 0.00 0.00 0.00 92 1016.4
20260506225039 6 285 8.0 12.9 0.00 0.00 0.00 92 1015.7
20260506224539 6 279 8.0 12.9 0.00 0.00 0.00 93 1016.4
20260506224531 6 284 8.0 11.3 0.00 0.00 0.00 93 1016.7
20260506224100 7 280 6.4 11.3 0.00 0.00 0.00 93 1015.7
20260506223905 7 297 8.0 11.3 0.00 0.00 0.00 93 1016.7
20260506223610 7 298 8.0 11.3 0.00 0.00 0.00 93 1016.7
20260506223058 7 303 8.0 12.9 0.00 0.00 0.00 93 1015.7
20260506222558 7 289 6.4 8.0 0.00 0.00 0.00 93 1016.7
20260506222540 7 293 8.0 9.7 0.00 0.00 0.00 93 1016.7
20260506222041 7 266 4.8 6.4 0.00 0.00 0.00 93 1015.7
20260506221704 7 286 8.0 8.0 0.00 0.00 0.00 92 1016.4
20260506221518 7 295 4.8 8.0 0.00 0.00 0.00 92 1016.7
20260506221048 7 285 4.8 6.4 0.00 0.00 0.00 92 1015.7
20260506220651 7 327 4.8 4.8 0.00 0.00 0.00 92 1016.7
20260506220524 7 327 3.2 4.8 0.00 0.00 0.00 92 1016.7
20260506220040 7 297 4.8 8.0 0.00 0.00 0.00 92 1016.0
20260506215613 7 313 4.8 6.4 0.00 0.00 0.00 92 1016.7
20260506215546 7 313 3.2 6.4 0.00 0.00 0.00 92 1016.7
20260506215023 7 304 1.6 6.4 0.00 0.00 0.00 92 1016.0
20260506214701 7 350 3.2 6.4 0.00 0.00 0.00 92 1016.7
20260506214543 7 351 3.2 6.4 0.00 0.00 0.00 92 1016.7
20260506214019 7 336 3.2 9.7 0.00 0.00 0.00 91 1016.0
20260506213541 7 346 1.6 4.8 0.00 0.00 0.00 91 1016.7
20260506213530 7 11 1.6 4.8 0.00 0.00 0.00 91 1016.7
20260506213041 7 346 3.2 4.8 0.00 0.00 0.00 91 1016.0
20260506212544 7 319 3.2 4.8 0.00 0.00 0.00 91 1017.1
20260506212025 7 332 3.2 6.4 0.00 0.00 0.00 91 1016.0
20260506211531 7 117 3.2 3.2 0.00 0.00 0.00 91 1016.7
20260506211101 7 30 1.6 4.8 0.00 0.00 0.00 91 1016.0
20260506210548 7 81 0.0 3.2 0.00 0.00 0.00 91 1016.7
20260506210536 7 55 1.6 3.2 0.00 0.00 0.00 91 1017.1
20260506210030 7 50 0.0 3.2 0.00 0.00 0.00 91 1015.7
20260506205524 6 28 0.0 3.2 0.00 0.00 0.00 92 1016.7
20260506205035 7 38 1.6 4.8 0.00 0.00 0.00 92 1015.7
20260506204639 7 57 1.6 3.2 0.00 0.00 0.00 92 1016.7
20260506204520 7 52 3.2 4.8 0.00 0.00 0.00 92 1017.1
20260506204051 7 5 3.2 6.4 0.00 0.00 0.00 92 1016.0
20260506203728 7 340 4.8 6.4 0.00 0.00 0.00 91 1016.7
20260506203534 6 344 4.8 6.4 0.00 0.00 0.00 91 1017.1
20260506203039 7 39 3.2 6.4 0.00 0.00 0.00 91 1016.4
20260506202548 7 335 3.2 6.4 0.00 0.00 0.00 91 1017.1
20260506202522 7 348 4.8 9.7 0.00 0.00 0.00 91 1017.1
20260506202119 7 356 3.2 6.4 0.00 0.00 0.00 89 1016.0
20260506201601 7 1 3.2 6.4 0.00 0.00 0.00 90 1016.7
20260506201546 7 341 3.2 4.8 0.00 0.00 0.00 89 1017.1
20260506201024 7 26 3.2 4.8 0.00 0.00 0.00 90 1016.0
20260506200540 7 5 1.6 8.0 0.00 0.00 0.00 89 1016.7
20260506200522 7 10 1.6 4.8 0.00 0.00 0.00 89 1017.1
20260506200028 7 52 3.2 6.4 0.00 0.00 0.00 89 1016.0
20260506195554 7 84 3.2 4.8 0.00 0.00 0.00 91 1017.1
20260506195520 7 75 3.2 4.8 0.00 0.00 0.00 90 1016.7
20260506195039 6 352 3.2 6.4 0.00 0.00 0.00 91 1016.0
20260506194550 6 322 1.6 3.2 0.00 0.00 0.00 92 1017.1
20260506194533 6 336 0.0 4.8 0.00 0.00 0.00 92 1017.1
20260506194059 6 345 3.2 4.8 0.00 0.00 0.00 93 1016.0
20260506193630 6 19 1.6 4.8 0.00 0.00 0.00 93 1017.1
20260506193528 6 354 1.6 4.8 0.00 0.00 0.00 93 1017.4
20260506193023 6 326 4.8 8.0 0.00 0.00 0.00 93 1016.4
20260506192644 6 349 3.2 6.4 0.00 0.00 0.00 93 1017.4
20260506192618 6 358 3.2 6.4 0.00 0.00 0.00 93 1017.4
20260506192020 6 344 1.6 4.8 0.00 0.00 0.00 93 1016.4
20260506191600 6 354 3.2 6.4 0.00 0.00 0.00 93 1017.4
20260506191522 6 8 3.2 6.4 0.00 0.00 0.00 93 1017.4
20260506191033 6 328 1.6 6.4 0.00 0.00 0.00 93 1016.4
20260506190844 6 320 3.2 6.4 0.00 0.00 0.00 93 1017.4
20260506190552 6 329 1.6 6.4 0.00 0.00 0.00 93 1017.4
20260506190029 6 355 1.6 6.4 0.00 0.00 0.00 93 1016.4
20260506185835 6 328 3.2 6.4 0.00 0.00 0.00 93 1017.4
20260506185615 6 327 3.2 6.4 0.00 0.00 0.00 93 1017.7
20260506185043 7 43 3.2 6.4 0.00 0.00 0.00 93 1016.7
20260506184620 7 348 3.2 6.4 0.00 0.00 0.00 92 1017.4
20260506184520 7 352 3.2 6.4 0.00 0.00 0.00 92 1017.7
20260506184021 7 54 3.2 6.4 0.00 0.00 0.00 93 1016.7
20260506183541 7 53 4.8 4.8 0.00 0.00 0.00 93 1017.4
20260506183525 7 57 3.2 6.4 0.00 0.00 0.00 93 1017.4
20260506183026 7 56 3.2 6.4 0.00 0.00 0.00 93 1016.7
20260506182538 7 62 4.8 6.4 0.00 0.00 0.00 93 1017.4
20260506182529 6 60 4.8 9.7 0.00 0.00 0.00 93 1017.7
20260506182023 6 62 3.2 6.4 0.00 0.00 0.00 94 1016.7
20260506181609 6 73 1.6 4.8 0.00 0.00 0.00 94 1017.4
20260506181534 6 78 3.2 6.4 0.00 0.00 0.00 94 1017.7
20260506181039 6 50 1.6 4.8 0.00 0.00 0.00 94 1016.7
20260506180559 6 49 1.6 6.4 0.00 0.00 0.00 95 1017.7
20260506180521 6 55 1.6 4.8 0.00 0.00 0.00 95 1017.7
20260506180044 6 38 1.6 6.4 0.00 0.00 0.00 94 1017.1
20260506175606 6 345 1.6 4.8 0.00 0.00 0.00 95 1018.1
20260506175552 6 346 1.6 3.2 0.00 0.00 0.00 94 1017.7
20260506174624 6 359 3.2 6.4 0.00 0.00 0.00 95 1018.1
20260506174522 6 352 3.2 9.7 0.00 0.00 0.00 95 1018.1
20260506174040 6 41 3.2 6.4 0.00 0.00 0.00 95 1017.1
20260506173557 6 22 1.6 4.8 0.00 0.00 0.00 94 1018.1
20260506173519 6 23 3.2 4.8 0.00 0.00 0.00 94 1018.1
20260506173035 6 19 3.2 4.8 0.00 0.00 0.00 94 1017.4
20260506172607 6 357 3.2 3.2 0.00 0.00 0.00 93 1018.1
20260506172533 6 7 3.2 4.8 0.00 0.00 0.00 94 1018.4
20260506172027 6 343 3.2 6.4 0.00 0.00 0.00 94 1017.4
20260506171613 6 2 3.2 4.8 0.00 0.00 0.00 94 1018.1
20260506171538 6 359 3.2 6.4 0.00 0.00 0.00 94 1018.4
20260506171036 6 337 4.8 9.7 0.00 0.00 0.00 94 1017.4
20260506170551 6 359 3.2 4.8 0.00 0.00 0.00 94 1018.1
20260506170525 6 351 3.2 9.7 0.00 0.00 0.00 94 1018.4
20260506170019 6 334 4.8 8.0 0.00 0.00 0.00 94 1017.4
20260506165530 6 6 3.2 8.0 0.00 0.00 0.00 94 1018.1
20260506165522 6 0 3.2 8.0 0.00 0.00 0.00 94 1018.4
20260506165043 6 4 3.2 4.8 0.00 0.00 0.00 94 1017.4
20260506164630 6 351 1.6 3.2 0.00 0.00 0.00 94 1018.4
20260506164544 6 337 1.6 4.8 0.00 0.00 0.00 94 1018.4
20260506164121 6 328 4.8 6.4 0.00 0.00 0.00 93 1018.4
20260506164020 6 12 1.6 4.8 0.00 0.00 0.00 94 1017.7
20260506163522 6 343 3.2 6.4 0.00 0.00 0.00 93 1018.8
20260506163046 6 315 6.4 9.7 0.00 0.00 0.00 93 1017.7
20260506162611 6 322 6.4 11.3 0.00 0.00 0.00 93 1018.4
20260506162519 6 331 4.8 6.4 0.00 0.00 0.00 93 1018.8
20260506162031 6 333 4.8 9.7 0.00 0.00 0.00 93 1017.7
20260506161559 6 325 4.8 6.4 0.00 0.00 0.00 93 1018.8
20260506161533 6 330 4.8 8.0 0.00 0.00 0.00 93 1018.8
20260506161033 6 330 4.8 9.7 0.00 0.00 0.00 93 1018.1
20260506160529 6 356 4.8 6.4 0.00 0.00 0.00 93 1018.8
20260506160520 6 352 4.8 6.4 0.00 0.00 0.00 93 1018.8
20260506160031 6 344 4.8 6.4 0.00 0.00 0.00 93 1018.1
20260506155655 6 1 4.8 8.0 0.00 0.00 0.00 93 1018.8
20260506155554 6 352 4.8 6.4 0.00 0.00 0.00 93 1019.1
20260506155028 6 332 4.8 9.7 0.00 0.00 0.00 93 1018.1
20260506154556 6 334 4.8 6.4 0.00 0.00 0.00 92 1018.8
20260506154521 6 326 4.8 11.3 0.00 0.00 0.00 93 1019.1
20260506154032 6 321 6.4 9.7 0.00 0.00 0.00 92 1018.1
20260506153554 6 336 4.8 8.0 0.00 0.00 0.00 92 1019.1
20260506153544 6 335 4.8 6.4 0.00 0.00 0.00 92 1019.1
20260506153046 6 327 4.8 8.0 0.00 0.00 0.00 92 1018.1
20260506152540 6 322 8.0 12.9 0.00 0.00 0.00 92 1019.5
20260506152522 6 332 6.4 8.0 0.00 0.00 0.00 92 1019.1
20260506152119 6 317 6.4 9.7 0.00 0.00 0.00 92 1018.4
20260506151655 6 318 8.0 11.3 0.00 0.00 0.00 91 1019.5
20260506151519 6 319 8.0 11.3 0.00 0.00 0.00 91 1019.5
20260506151047 6 309 6.4 11.3 0.00 0.00 0.00 92 1018.4
20260506150524 6 294 6.4 12.9 0.00 0.00 0.00 92 1019.5
20260506150026 6 273 6.4 9.7 0.00 0.00 0.00 92 1018.4
20260506145555 6 285 8.0 12.9 0.00 0.00 0.00 93 1019.1
20260506145540 6 297 6.4 9.7 0.00 0.00 0.00 93 1019.5
20260506145022 6 324 6.4 9.7 0.00 0.00 0.00 93 1018.4
20260506144533 6 314 8.0 14.5 0.00 0.00 0.00 93 1019.1
20260506144525 6 319 6.4 14.5 0.00 0.00 0.00 93 1019.1
20260506144019 6 318 9.7 11.3 0.00 0.00 0.00 92 1018.4
20260506143556 6 320 9.7 14.5 0.00 0.00 0.00 92 1019.1
20260506143521 6 317 9.7 14.5 0.00 0.00 0.00 92 1019.1
20260506143023 6 318 8.0 16.1 0.00 0.00 0.00 92 1018.1
20260506142531 6 317 11.3 19.3 0.00 0.00 0.00 92 1019.1
20260506142526 6 316 11.3 19.3 0.00 0.00 0.00 92 1019.1
20260506142020 6 313 11.3 20.9 0.00 0.00 0.00 93 1018.1
20260506141531 7 300 9.7 14.5 0.00 0.00 0.00 93 1019.1
20260506141054 7 317 9.7 12.9 0.00 0.00 0.00 93 1018.1
20260506140547 7 305 8.0 12.9 0.00 0.00 0.00 93 1018.8
20260506140536 7 312 8.0 12.9 0.00 0.00 0.00 93 1019.1
20260506140031 7 308 8.0 12.9 0.00 0.00 0.00 93 1018.1
20260506135532 7 320 9.7 14.5 0.00 0.00 0.00 93 1019.1
20260506135524 7 319 9.7 14.5 0.00 0.00 0.00 93 1019.1
20260506135044 7 312 8.0 14.5 0.00 0.00 0.00 93 1018.1
20260506134533 7 306 9.7 14.5 0.00 0.00 0.00 93 1019.1
20260506134520 7 305 9.7 16.1 0.00 0.00 0.00 93 1018.8
20260506134031 7 317 8.0 11.3 0.00 0.00 0.00 92 1018.1
20260506133551 7 315 12.9 19.3 0.00 0.00 0.00 92 1018.8
20260506133542 7 312 11.3 17.7 0.00 0.00 0.00 92 1019.1
20260506133018 7 326 8.0 14.5 0.00 0.00 0.00 93 1018.1
20260506132611 7 310 11.3 20.9 0.00 0.00 0.00 92 1019.1
20260506132556 7 312 11.3 14.5 0.00 0.00 0.00 92 1018.8
20260506132041 7 312 14.5 20.9 0.00 0.00 0.00 93 1018.1
20260506131618 7 313 11.3 14.5 0.00 0.00 0.00 93 1018.8
20260506131531 7 316 12.9 19.3 0.00 0.00 0.00 93 1019.1
20260506131020 7 314 9.7 12.9 0.00 0.00 0.00 93 1018.1
20260506130522 7 324 6.4 11.3 0.00 0.00 0.00 93 1018.8
20260506130026 7 301 9.7 16.1 0.00 0.00 0.00 92 1018.1
20260506125628 7 293 9.7 12.9 0.00 0.00 0.00 92 1018.8
20260506125554 7 298 9.7 19.3 0.00 0.00 0.00 92 1019.1
20260506125039 7 288 12.9 19.3 0.00 0.00 0.00 92 1018.1
20260506124541 7 301 11.3 17.7 0.00 0.00 0.00 92 1018.8
20260506124059 7 308 9.7 19.3 0.00 0.00 0.00 92 1018.1
20260506123713 7 289 8.0 9.7 0.00 0.00 0.00 91 1018.8
20260506123520 7 298 9.7 17.7 0.00 0.00 0.00 92 1019.1
20260506123022 7 301 11.3 16.1 0.00 0.00 0.00 91 1018.1
20260506122542 7 303 16.1 22.5 0.00 0.00 0.00 91 1018.8
20260506122525 7 310 12.9 30.6 0.00 0.00 0.00 91 1018.8
20260506122050 7 314 9.7 16.1 0.00 0.00 0.00 90 1017.7
20260506121547 7 303 12.9 19.3 0.00 0.00 0.00 89 1018.8
20260506121530 7 299 12.9 19.3 0.00 0.00 0.00 89 1018.8
20260506121052 8 310 14.5 22.5 0.00 0.00 0.00 92 1017.7
20260506120526 8 293 12.9 22.5 0.00 0.00 0.00 93 1018.8
20260506120040 8 281 9.7 14.5 0.00 0.00 0.00 93 1017.7
20260506115718 8 279 11.3 17.7 0.00 0.00 0.00 92 1018.8
20260506115522 8 278 12.9 17.7 0.00 0.00 0.00 92 1018.8
20260506115042 8 273 11.3 14.5 0.00 0.00 0.00 92 1018.1
20260506114528 8 286 11.3 16.1 0.00 0.00 0.00 92 1018.8
20260506114518 8 281 9.7 14.5 0.00 0.00 0.00 92 1018.8
20260506114058 8 287 14.5 16.1 0.00 0.00 0.00 91 1017.7
20260506113731 8 275 9.7 14.5 0.00 0.00 0.00 91 1018.4
20260506113524 8 264 11.3 14.5 0.00 0.00 0.00 91 1018.8
20260506113033 8 275 9.7 17.7 0.00 0.00 0.00 91 1017.7
20260506112603 8 288 9.7 16.1 0.00 0.00 0.00 91 1018.4
20260506112528 8 280 9.7 12.9 0.00 0.00 0.00 91 1018.1
20260506112031 8 264 9.7 14.5 0.00 0.00 0.00 90 1017.4
20260506111542 8 271 12.9 19.3 0.00 0.00 0.00 90 1018.1
20260506111038 8 256 9.7 17.7 0.00 0.00 0.00 90 1017.4
20260506110530 8 258 9.7 14.5 0.00 0.00 0.00 90 1018.1
20260506110521 9 263 11.3 16.1 0.00 0.00 0.00 90 1018.1
20260506110032 9 287 11.3 20.9 0.00 0.00 0.00 90 1017.1
20260506105535 9 259 8.0 9.7 0.00 0.00 0.00 91 1017.7
20260506105526 9 265 8.0 14.5 0.00 0.00 0.00 91 1017.7
20260506105046 9 250 8.0 14.5 0.00 0.00 0.00 90 1016.7
20260506104608 9 244 11.3 20.9 0.00 0.00 0.00 90 1017.7
20260506104034 9 266 8.0 12.9 0.00 0.00 0.00 90 1016.7
20260506103527 9 270 6.4 11.3 0.00 0.00 0.00 90 1017.7
20260506103518 9 275 8.0 11.3 0.00 0.00 0.00 90 1017.4
20260506103021 9 258 9.7 14.5 0.00 0.00 0.00 90 1016.7
20260506102544 9 258 11.3 19.3 0.00 0.00 0.00 90 1017.4
20260506102045 9 253 9.7 14.5 0.00 0.00 0.00 90 1016.7
20260506101629 9 282 8.0 14.5 0.00 0.00 0.00 90 1017.4
20260506101520 9 276 8.0 14.5 0.00 0.00 0.00 90 1017.4
20260506101048 9 269 6.4 11.3 0.00 0.00 0.00 90 1016.4
20260506100646 9 241 6.4 12.9 0.00 0.00 0.00 89 1017.1
20260506100543 9 249 8.0 9.7 0.00 0.00 0.00 89 1017.4
20260506100018 9 260 8.0 12.9 0.00 0.00 0.00 89 1016.0